Погода Иваново

Погода Иваново : погода сейчас, прогноз погоды и архив. Всё, что Вы хотите узнать о погоде Иваново!

Хотите узнать прогноз погоды Иваново? Тогда Вам сюда: Погода Иваново

Поиск расширенной информации на нашем сайте:

Другие новости

Новости СМИ2

Главная страница сайта

Новости сайта

02.10.2013

Напоминаем, что на нашем новом сайте вы можете получить высокодетализированные прогнозы погоды по пунктам России, СНГ и мира (включающие важные для авиации метеовеличины, такие как направление и скорость ветра, видимость, явления погоды, количество и форма облачности, нижняя и верхняя граница облачности), а также ознакомиться с разнообразными материалами по авиационной метеорологии и подборкой полезных ссылок на эту тему.

Сайт Метеоцентр.Азия посвящён разработке технологий оптимизации авиаметеорологического обслуживания, включая проектирование и перспективное создание нескольких автоматизированных авиаметеорологических систем:
- система выпуска высокодетальных прогностических карт явлений погоды для нижнего воздушного пространства по России и ближнему зарубежью;
- система верификации прогнозов TAF (выпускаемых синоптиками официальных АМСГ РФ и ближнего зарубежья) и AUTOTAF (выпускаемых сайтом Метеоцентр.Азия) - выявление ошибок, онлайн-сопоставление с фактической погодой METAR, автоматическое внесение коррективов в прогнозы при резком отклонении фактической погоды от прогноза, подсчёт оправдываемости прогнозов по элементам и в целом;
- система обработки, анализа и отображения авиаметеорологической информации для применения провайдерами метеорологической информации.


Погода Иваново - сегодня

Время (UTC), дата Ветер
(°,м/с) 
Видим.   Явления Облачность Т
(°С)
Тd
(°С)
f(%) Тe
(°С)
Pmin
(гПа)
dP
(гПа)
Po
(мм)
O2
(г/м3)
Тmin Tmax R s Состояние
почвы
03 20.04.17 340 (С) 10 км    8/0 средняя 
[Ac As]
-1.1 -10.5 49 -4  1023.6  -1.4  756  307  -1.1      мокрый или
старый снег
10-40% 
06 20.04.17 360 (С) 10 км    10/0 средняя 
[As op]
+0.2 -11.5 41 -3  1022.7  -0.8  755  305           
09 20.04.17 350 (С) 5{11}  10 км    10/4 600 м средняя 
[Sc|Ac trans]
+1.2 -10.1 43 -2  1021.6  -1.1  754  304           
12 20.04.17 340 (С) 5-10{12}  10 км    10/3 600 м средняя 
[Sc|Ac trans]
+1.9 -11.1 37 -1  1020.5  -1  754  303           
15 20.04.17 010 (С) 3{10}  10 км    10/4 600 м средняя 
[Sc|Ac trans]
+2.3 -10.5 38 +1  1019.7  -0.7  753  302    +2.6       
18 20.04.17 280 (З) 10 км    10/0 средняя 
[Ac As]
-0.4 -8.7 53 1019.6  -0.7  753  305           
21 20.04.17 280 (З) 10 км    3/0 средняя 
[Ac trans]
-1.2 -8.5 58 -4  1018.7  -0.9  752  305           
00 21.04.17 280 (З) 10 км    ясно 
-2.8 -10.1 57 -5  1017.9  -0.8  751  307           
03 21.04.17 230 (ЮЗ) 10 км    6/0 верхняя 
[Ci fib]
-3.6 -9.6 63 -5  1017  -0.9  751  307  -4.9      мокрый или
старый снег
10-40% 
06 21.04.17 250 (З) 10 км    10/0 средняя, верхняя 
[Ac trans|Ci]
+3.1 -10.6 36 +1  1014.8  -1.8  749  300           
09 21.04.17 240 (ЮЗ) 5{10}  10 км    10/0 средняя, верхняя 
[Ac trans|Ci fib]
+6.3 -10.7 28 +4  1012.4  -2.2  748  295           
12 21.04.17 230 (ЮЗ) 6-10{11}  10 км    10/0 средняя 
[As op]
+6.4 -11.5 26 +4  1009.8  -2.2  746  295           
15 21.04.17 210 (ЮЗ) 6-11{12}  10 км    10/4 600 м средняя 
[Sc|As op]
+6.4 -11.2 27 +4  1006.7  -3.1  744  294    +7       
18 21.04.17 210 (ЮЗ) 3{11}  10 км    9/4 1000 м средняя, верхняя 
[Sc|Ac trans|Ci fib]
+5 -9.6 34 +4  1004.8  -1.9  742  295           
21 21.04.17 220 (ЮЗ) 10 км    9/3 600 м средняя, верхняя 
[Sc|Ac trans|Ci fib]
+4.3 -6.1 47 +2  1002.6  -2.2  740  294           
00 22.04.17 210 (ЮЗ) 2{11}  10 км    10/4 1000 м средняя 
[Sc|Ac trans]
+4.2 -5.4 50 +4  999.7  -2.8  738  294           
03 22.04.17 190 (Ю) 2{11}  10 км  в посл. час снег  10/8 840 м средняя 
[Sc|As op]
+2.7 -3 66 +2  998.8  -1  738  295  +2.4    0.0    влажная 
06 22.04.17 230 (ЮЗ) 10 км  {снег}  9/6 1300 м средняя 
[Sc|Ac trans]
+5 -1.4 63 +3  998.1  -0.6  737  292           
09 22.04.17 230 (ЮЗ) 10 км    10/8 1260 м средняя 
[Sc|Ac und]
+6.1 -2.2 55 +5  997.5  -0.5  737  291           
12 22.04.17 140 (ЮВ) 10 км    8/8 1380 м 
[Sc]
+8.3 -3.5 43 +7  995.7  -1.6  736  288           
15 22.04.17 140 (ЮВ) 4{10}  10 км    10/6 1500 м средняя, верхняя 
[Sc|Ac trans|Ci fib]
+8.4 -3.1 44 +7  993.4  -2.3  734  287    +9.9       
18 22.04.17 170 (Ю) 4{12}  10 км  слаб. дождь  10/3 600 м средняя 
[Sc|As op]
+6.2 +0.9 69 +5  992.2  -1.3  733  289           
21 22.04.17 200 (Ю) 3{11}  10 км  {дождь}  10/4 600 м средняя 
[Sc|Ac und]
+4.1 +2.2 87 +3  991.5  -0.8  732  290           
00 23.04.17 230 (ЮЗ) 10 км  {дождь}  8/8 450 м 
[Sc]
+3.3 +0.8 84 +1  993  1.4  733  292           
03 23.04.17 220 (ЮЗ) 10 км  в посл. час ливневой дождь  10/10 1080 м кучево-дожд. 
[Cb calv]
+2.6 -1.1 77 994.1  734  293  +2    0.8    влажная 
Время (UTC), дата Ветер
(°,м/с) 
Видим.   Явления Облачность Т
(°С)
Тd
(°С)
f(%) Тe
(°С)
Pmin
(гПа)
dP
(гПа)
Po
(мм)
O2
(г/м3)
Тmin Tmax R s Состояние
почвы

Для получения пояснительной информации подведите курсор к названию столбца.

ПОГОДА Иваново - архив

Всё, что Вы хотите узнать о погоде Иваново - удобно и подробно!

Выберите нужную дату (начиная с 1 января 2015* года) и нажмите кнопку "Найти".
Будут отображены архивные сводки погоды по пункту Иваново, начиная с указанной даты.


Отображать данные в формате CSV (для использования в таблицах Excel)


Внимание! Наш архив погоды предназначен исключительно для личного некоммерческого использования в познавательных целях. Если Вам необходимы официальные справки о состоянии погоды (для производственных, юридических, коммерческих и т.п. целей), обращайтесь в органы Росгидромета.

*Примечание: данная дата относится к архиву по метеостанциям СССР (Россия, СНГ, Балтия).
Архив по метеостанциям Зарубежной Европы и Азии (кроме Китая) хранится 10 дней, по другим регионам земного шара (Китай, Африка, Америка, Австралия, Океания) - 1 день.

Иваново - район местоположения метеостанции


Название, широта, долгота, высота метеостанции:
Иваново (Южный) 56.9°ш. 40.1°д. 126 м над ур. моря [Российская Федерация]

Дополнительная информация

В oтличие oт бoльшинства пoгoдных сайтoв мы публикуем пoдрoбную метеoинфoрмацию в детальнoм прoфессиoнальнoм фoрмате.

Характеристики температуры и влажнoсти вoздуха измеряются на высoте 2 м в тени вдали oт зданий и деревьев.
Скoрoсть ветра измеряется на высoте 10 м (на урoвне рoста челoвека скoрoсть ветра ниже в 1.5-2 раза). Если метеoстанция нахoдится в гoрoде или в лесу, тo скoрoсть ветра занижена на 2-4 м/с пo сравнению с oткрытым местoм. Скoрoсть ветра над акватoриями крупных рек и oзёр, а также на вершинах хoлмoв на 2-5 м/с выше, чем в oбычных услoвиях.
Атмoсфернoе давление в разных тoчках местнoсти мoжет значительнo oтличаться oт давления на метеoстанции, в зависимoсти oт услoвий рельефа (при пoдъёме на 10 м давление пoнижается примернo на 1 мм рт.ст.).